Tracking 25693 objects as of 1-Jul-2022
HD Live streaming from Space Station
objects crossing your sky now

STARLINK-3291

Track STARLINK-3291 now!
10-day predictions
STARLINK-3291 is classified as:


NORAD ID: 50175
Int'l Code: 2021-125V
Perigee: 545.4 km
Apogee: 548.5 km
Inclination: 53.2 °
Period: 95.4 minutes
Semi major axis: 6917 km
RCS: Unknown
Launch date: December 18, 2021
Source: United States (US)
Launch site: AIR FORCE WESTERN TEST RANGE (AFWTR)
aabbcc
Your satellite tracking list
Your tracking list is empty




NASA's NSSDC Master Catalog

Two Line Element Set (TLE):
1 50175U 21125V   22182.38336198  .00000294  00000-0  36613-4 0  9993
2 50175  53.2162 177.4111 0002277  53.5078 306.6124 15.08820630 33200
Source of the keplerian elements: AFSPC